Location: Blackfoot
(53.5367°N, 112.7800°W)
Time: 11:26:32
(UTC-07:00)

Amateur Radio Satellites - All Passes

Search period start: 26 January 2015 10:56
Search period end: 27 January 2015 10:56
Location: Blackfoot, 53.5367°N, 112.7800°W

Satellite Date Start Highest point End Downlink Frequencies (MHz)
Time Altitude Azimuth
HUMSAT D 26 Jan 10:56:45 11:00:56 48° 99° (E) 11:05:02 437.325/437.525
AO-7 26 Jan 11:00:02 11:03:15 13° 8° (N) 11:06:33 29.400- 29.500
50 SAT 26 Jan 11:03:14 11:07:09 42° 98° (E) 11:11:02 437.505
COMPASS 1 26 Jan 11:04:09 11:07:41 26° 297° (WNW) 11:11:08 437.405
QB50P2 26 Jan 11:05:46 11:09:51 41° 263° (W) 11:13:57 145.880/145.840
GOMX 1 26 Jan 11:06:36 11:11:20 29° 300° (WNW) 11:15:54 467.674
CANX-2 26 Jan 11:09:01 11:12:01 19° 302° (WNW) 11:14:54 2200.000
VELOX 1 26 Jan 11:15:23 11:19:51 57° 102° (ESE) 11:24:18 145.980
QB50P1 26 Jan 11:16:32 11:20:27 33° 265° (W) 11:24:22 145.935-145.965
AIST 2 26 Jan 11:17:34 11:21:45 45° 36° (NE) 11:25:54 435.215
Oscar 11 26 Jan 11:22:41 11:26:40 36° 295° (WNW) 11:30:35 145.826/435.025
POLYITAN 1 26 Jan 11:29:27 11:33:07 26° 267° (W) 11:36:46 437.675
ANTELSAT 26 Jan 11:32:03 11:35:32 20° 272° (W) 11:38:55 437.575/2403.000
GONETS M04 26 Jan 11:32:49 11:40:33 35° 58° (ENE) 11:48:22
AAUSAT CUBESAT 2 26 Jan 11:33:32 11:36:20 17° 302° (WNW) 11:39:03 437.432
SPROUT 26 Jan 11:33:38 11:35:39 13° 84° (E) 11:37:52 437.525
CUBEBUG 1 26 Jan 11:33:50 11:38:03 40° 97° (E) 11:42:16 437.445
CUTE 1.7 + AOD 2 26 Jan 11:34:24 11:36:27 13° 306° (NW) 11:38:23 437.475
DOVE 4 26 Jan 11:34:35 11:38:45 23° 303° (WNW) 11:42:43 437.250
PCSat 26 Jan 11:37:35 11:42:03 25° 21° (NNE) 11:46:33 145.827
BEESAT 2 26 Jan 11:39:01 11:43:15 77° 228° (SW) 11:47:25 435.950
SO-50 26 Jan 11:39:58 11:44:06 33° 121° (ESE) 11:48:24 436.795
TIGRISAT 26 Jan 11:42:17 11:45:24 17° 274° (W) 11:48:21 435.000
CUBEBUG 2 26 Jan 11:42:34 11:46:52 35° 296° (WNW) 11:50:59 437.445
CINEMA 3 26 Jan 11:45:38 11:49:44 25° 301° (WNW) 11:53:38 145.822/145.860
BUGSAT 1 26 Jan 11:46:18 11:49:33 22° 269° (W) 11:52:48 437.445
DELFI C3 26 Jan 11:46:48 11:50:08 24° 298° (WNW) 11:53:23 145.870
AIST 1 26 Jan 11:50:21 11:54:19 41° 93° (E) 11:58:22
POPSAT HIP 1 26 Jan 11:52:18 11:55:14 17° 272° (W) 11:58:04 437.405
UKube-1 26 Jan 11:56:16 12:00:09 31° 297° (WNW) 12:03:59 .
BEESAT 3 26 Jan 11:56:38 12:00:43 51° 233° (SW) 12:04:44 437.485
DUCHIFAT 1 26 Jan 11:57:11 11:59:54 16° 273° (W) 12:02:29 145.980
Oscar 19 26 Jan 11:57:32 12:02:10 35° 62° (ENE) 12:06:53 437.125/150
ZACube-1 26 Jan 12:04:36 12:08:34 29° 297° (WNW) 12:12:23 437.345
ITAMSAT 1 26 Jan 12:07:37 12:11:18 20° 54° (NE) 12:15:06 435.822/435.867
DX 1 26 Jan 12:13:28 12:16:59 23° 301° (WNW) 12:20:25 434.975-435.025
ESTCUBE 1 26 Jan 12:14:18 12:18:51 86° 286° (WNW) 12:23:24 437.505/2401.250
FUNcube-1 26 Jan 12:17:54 12:21:34 24° 300° (WNW) 12:25:04 145.935
TISAT 1 26 Jan 12:20:45 12:24:38 32° 95° (E) 12:28:32 437.305
AISAT 26 Jan 12:22:05 12:26:20 39° 294° (WNW) 12:30:31 437.250
DANDE 26 Jan 12:26:28 12:27:41 10° 21° (NNE) 12:29:05 436.750
UWE-3 26 Jan 12:30:17 12:33:26 18° 304° (NW) 12:36:27 435.000/436.395/437.385
HUMSAT D 26 Jan 12:32:56 12:36:32 26° 298° (WNW) 12:40:01 437.325/437.525
HO-68 26 Jan 12:36:21 12:41:01 19° 321° (NW) 12:45:31 435.675
50 SAT 26 Jan 12:38:40 12:42:09 26° 297° (WNW) 12:45:32 437.505
Gurwin Techsat 1B 26 Jan 12:45:00 12:49:20 27° 58° (ENE) 12:53:46 435.225
AO-7 26 Jan 12:47:07 12:53:05 23° 35° (NE) 12:59:12 29.400- 29.500
VELOX 1 26 Jan 12:52:31 12:56:09 24° 300° (WNW) 12:59:44 145.980
SWISSCUBE 26 Jan 12:53:09 12:55:58 16° 86° (E) 12:58:56 437.505
VERMONT LUNAR 26 Jan 12:55:22 12:55:48 10° 182° (S) 12:56:14 437.305
AIST 2 26 Jan 12:56:20 13:00:22 38° 236° (WSW) 13:04:18 435.215
RS-15 26 Jan 12:56:54 13:08:02 67° 33° (NNE) 13:19:40 29.354- 29.394
SPROUT 26 Jan 13:08:06 13:12:30 88° 105° (ESE) 13:16:52 437.525
BEESAT 26 Jan 13:09:11 13:12:38 20° 89° (E) 13:16:12 436.000
CUBEBUG 1 26 Jan 13:10:25 13:14:22 31° 297° (WNW) 13:18:16 437.445
ITUPSAT 1 26 Jan 13:11:00 13:14:30 20° 89° (E) 13:18:06 437.325
CUSAT 1 26 Jan 13:11:52 13:15:49 15° 35° (NE) 13:19:34 437.405
BEESAT 2 26 Jan 13:18:40 13:20:51 14° 247° (WSW) 13:22:52 435.950
SO-50 26 Jan 13:19:52 13:24:29 57° 322° (NW) 13:29:16 436.795
PCSat 26 Jan 13:21:03 13:26:29 64° 44° (NE) 13:31:54 145.827
AIST 1 26 Jan 13:28:30 13:32:11 27° 294° (WNW) 13:35:50
GONETS M04 26 Jan 13:29:39 13:38:21 75° 263° (W) 13:46:59
PHONESAT 2.4 26 Jan 13:34:58 13:35:54 11° 183° (S) 13:36:51 2401.200-2431.200
Oscar 19 26 Jan 13:36:26 13:41:27 47° 261° (W) 13:46:29 437.125/150
HORYU 2 26 Jan 13:38:11 13:41:44 24° 59° (ENE) 13:45:22 437.375
ITAMSAT 1 26 Jan 13:45:02 13:50:14 89° 252° (WSW) 13:55:30 435.822/435.867
ESTCUBE 1 26 Jan 13:52:20 13:55:09 16° 305° (NW) 13:57:51 437.505/2401.250
TISAT 1 26 Jan 13:56:33 14:00:32 36° 295° (WNW) 14:04:27 437.305
DANDE 26 Jan 14:08:15 14:14:34 26° 48° (NE) 14:19:59 436.750
KKS-1 26 Jan 14:21:07 14:24:30 21° 90° (E) 14:27:57 437.445
STARS 26 Jan 14:22:22 14:24:56 15° 86° (E) 14:27:38 437.465
Gurwin Techsat 1B 26 Jan 14:23:42 14:28:59 66° 257° (WSW) 14:34:19 435.225
SWISSCUBE 26 Jan 14:29:46 14:34:35 88° 291° (WNW) 14:39:23 437.505
AO-7 26 Jan 14:36:17 14:44:25 59° 59° (ENE) 14:52:36 29.400- 29.500
SPROUT 26 Jan 14:45:18 14:48:04 16° 304° (NW) 14:50:42 437.525
BEESAT 26 Jan 14:46:16 14:51:02 70° 290° (WNW) 14:55:48 436.000
ITUPSAT 1 26 Jan 14:48:09 14:52:56 69° 289° (WNW) 14:57:42 437.325
JAS-2 26 Jan 14:51:10 14:55:23 25° 57° (ENE) 14:59:36 435.910
CUSAT 1 26 Jan 14:54:13 15:01:18 45° 62° (ENE) 15:06:50 437.405
SO-50 26 Jan 15:01:59 15:05:57 25° 346° (NNW) 15:10:01 436.795
PCSat 26 Jan 15:04:53 15:09:39 31° 246° (WSW) 15:14:21 145.827
RS-15 26 Jan 15:09:36 15:20:32 58° 240° (WSW) 15:31:52 29.354- 29.394
HORYU 2 26 Jan 15:13:40 15:18:08 59° 258° (WSW) 15:22:37 437.375
ITAMSAT 1 26 Jan 15:27:14 15:30:35 17° 275° (W) 15:33:47 435.822/435.867
GONETS M04 26 Jan 15:27:48 15:33:51 21° 286° (WNW) 15:39:34
Cubesat XI-IV 26 Jan 15:28:18 15:30:18 12° 45° (NE) 15:32:28 437.490
M-CUBED/EXP-1 PRIME 26 Jan 15:37:36 15:40:18 23° 100° (E) 15:43:01 437.505
CUTE-I 26 Jan 15:47:50 15:50:55 16° 49° (NE) 15:54:09 437.470
DANDE 26 Jan 15:51:37 15:59:29 86° 75° (ENE) 16:05:28 436.750
KKS-1 26 Jan 15:57:07 16:01:35 61° 290° (WNW) 16:06:01 437.445
STARS 26 Jan 15:57:36 16:02:06 83° 287° (WNW) 16:06:33 437.465
Gurwin Techsat 1B 26 Jan 16:07:59 16:10:10 12° 279° (W) 16:12:04 435.225
SWISSCUBE 26 Jan 16:08:41 16:11:53 18° 306° (NW) 16:14:59 437.505
AUBIESAT-1 26 Jan 16:13:03 16:16:19 49° 107° (ESE) 16:19:33 437.475
BEESAT 26 Jan 16:25:31 16:28:10 15° 309° (NW) 16:30:41 436.000
ITUPSAT 1 26 Jan 16:27:28 16:30:06 15° 309° (NW) 16:32:35 437.325
AO-7 26 Jan 16:29:33 16:37:33 46° 262° (W) 16:45:31 29.400- 29.500
JAS-2 26 Jan 16:34:48 16:40:15 67° 257° (WSW) 16:45:27 435.910
CUSAT 1 26 Jan 16:37:36 16:44:24 44° 270° (W) 16:49:38 437.405
SO-50 26 Jan 16:43:59 16:47:55 24° 10° (N) 16:51:54 436.795
Cubesat XI-IV 26 Jan 17:04:13 17:09:19 48° 65° (ENE) 17:14:28 437.490
O/OREOS (USA 219) 26 Jan 17:11:00 17:15:11 39° 110° (ESE) 17:19:25 437.305
M-CUBED/EXP-1 PRIME 26 Jan 17:12:24 17:15:27 33° 300° (WNW) 17:18:28 437.505
MOZHAYETS 4 26 Jan 17:14:16 17:18:42 48° 99° (E) 17:23:08
RS-15 26 Jan 17:23:55 17:30:40 17° 263° (W) 17:36:51 29.354- 29.394
CUTE-I 26 Jan 17:24:54 17:30:10 67° 69° (ENE) 17:35:30 437.470
STARS 26 Jan 17:35:17 17:37:58 16° 306° (NW) 17:40:33 437.465
KKS-1 26 Jan 17:35:34 17:37:26 12° 309° (NW) 17:39:11 437.445
DANDE 26 Jan 17:36:06 17:41:52 24° 281° (WNW) 17:46:33 436.750
AUBIESAT-1 26 Jan 17:48:42 17:51:02 18° 306° (NW) 17:53:18 437.475
HO-68 26 Jan 17:50:34 17:55:21 20° 41° (NE) 18:00:16 435.675
STRAND 1 26 Jan 17:55:56 17:57:15 11° 81° (E) 17:58:53 437.568
SO-50 26 Jan 18:24:47 18:29:31 46° 33° (NNE) 18:34:18 436.795
JAS-2 26 Jan 18:24:52 18:26:35 11° 279° (W) 18:28:01 435.910
AO-7 26 Jan 18:31:50 18:33:03 10° 287° (WNW) 18:33:38 29.400- 29.500
PRISM 26 Jan 18:38:43 18:42:36 38° 98° (E) 18:46:30 437.425
YUBILEINY 26 Jan 18:42:41 18:48:49 23° 75° (ENE) 18:55:15 435.215
Cubesat XI-IV 26 Jan 18:44:48 18:49:38 34° 266° (W) 18:54:28 437.490
O/OREOS (USA 219) 26 Jan 18:50:26 18:54:39 37° 311° (NW) 18:58:54 437.305
MOZHAYETS 4 26 Jan 18:51:52 18:55:47 28° 298° (WNW) 18:59:38
COMPASS 1 26 Jan 18:52:59 18:54:46 13° 54° (NE) 18:56:40 437.405
BRITE-PL 26 Jan 18:55:07 18:59:24 27° 58° (ENE) 19:04:00 437.365/2234.400
CANX-2 26 Jan 18:57:10 19:00:07 19° 58° (ENE) 19:03:10 2200.000
CUBESAT XI-V 26 Jan 18:58:17 19:02:47 46° 98° (E) 19:07:19 437.345
GOMX 1 26 Jan 19:05:31 19:09:41 25° 57° (ENE) 19:14:05 467.674
CUTE-I 26 Jan 19:06:27 19:10:46 24° 270° (W) 19:15:03 437.470
Oscar 11 26 Jan 19:15:02 19:16:10 11° 51° (NE) 19:17:28 145.826/435.025
AAUSAT CUBESAT 2 26 Jan 19:20:13 19:23:06 19° 59° (ENE) 19:26:04 437.432
CUTE 1.7 + AOD 2 26 Jan 19:21:00 19:24:34 26° 63° (ENE) 19:28:12 437.475
DOVE 4 26 Jan 19:31:02 19:35:24 29° 60° (ENE) 19:39:59 437.250
STRAND 1 26 Jan 19:32:31 19:37:40 63° 103° (ESE) 19:42:46 437.568
DELFI C3 26 Jan 19:33:29 19:34:54 12° 54° (NE) 19:36:27 145.870
HO-68 26 Jan 19:34:53 19:41:52 61° 63° (ENE) 19:48:54 435.675
CUBEBUG 2 26 Jan 19:36:09 19:38:38 15° 52° (NE) 19:41:17 437.445
CINEMA 3 26 Jan 19:39:58 19:43:47 23° 57° (ENE) 19:47:43 145.822/145.860
UKube-1 26 Jan 19:47:33 19:49:48 14° 53° (NE) 19:52:11 .
SEEDS 26 Jan 19:55:06 19:59:09 44° 68° (ENE) 20:03:14 437.485
ZACube-1 26 Jan 19:56:14 19:58:47 15° 54° (NE) 20:01:27 437.345
DX 1 26 Jan 20:03:56 20:07:00 19° 57° (ENE) 20:10:09 434.975-435.025
SO-50 26 Jan 20:05:27 20:10:11 47° 234° (SW) 20:14:54 436.795
FUNcube-1 26 Jan 20:08:32 20:11:35 18° 56° (ENE) 20:14:46 145.935
PRISM 26 Jan 20:14:26 20:18:04 29° 297° (WNW) 20:21:40 437.425
AISAT 26 Jan 20:16:22 20:18:12 13° 51° (NE) 20:20:12 437.250
UWE-3 26 Jan 20:20:35 20:24:24 26° 60° (ENE) 20:28:19 435.000/436.395/437.385
HUMSAT D 26 Jan 20:21:42 20:23:57 14° 54° (NE) 20:26:20 437.325/437.525
50 SAT 26 Jan 20:25:04 20:26:20 11° 53° (NE) 20:27:45 437.505
COMPASS 1 26 Jan 20:25:36 20:29:49 72° 72° (ENE) 20:34:03 437.405
CANX-2 26 Jan 20:31:21 20:35:39 72° 257° (WSW) 20:39:58 2200.000
BRITE-PL 26 Jan 20:32:27 20:37:30 65° 259° (W) 20:43:00 437.365/2234.400
O/OREOS (USA 219) 26 Jan 20:33:39 20:35:28 12° 335° (NNW) 20:37:12 437.305
YUBILEINY 26 Jan 20:35:45 20:44:27 82° 98° (E) 20:53:13 435.215
CUBESAT XI-V 26 Jan 20:36:01 20:40:07 30° 297° (WNW) 20:44:10 437.345
GOMX 1 26 Jan 20:42:14 20:47:20 71° 258° (WSW) 20:52:47 467.674
VELOX 1 26 Jan 20:44:34 20:47:42 20° 57° (ENE) 20:50:57 145.980
Oscar 11 26 Jan 20:47:16 20:51:33 57° 70° (ENE) 20:55:50 145.826/435.025
AAUSAT CUBESAT 2 26 Jan 20:54:09 20:58:22 71° 258° (WSW) 21:02:35 437.432
CUTE 1.7 + AOD 2 26 Jan 20:56:11 21:00:21 46° 262° (W) 21:04:31 437.475
CUBEBUG 1 26 Jan 21:02:43 21:04:52 14° 53° (NE) 21:07:09 437.445
DELFI C3 26 Jan 21:05:24 21:09:28 69° 73° (ENE) 21:13:33 145.870
DOVE 4 26 Jan 21:07:53 21:12:54 57° 261° (W) 21:18:08 437.250
CUBEBUG 2 26 Jan 21:09:51 21:14:35 69° 72° (ENE) 21:19:23 437.445
STRAND 1 26 Jan 21:12:15 21:16:33 27° 302° (WNW) 21:20:47 437.568
CINEMA 3 26 Jan 21:15:34 21:20:31 74° 257° (WSW) 21:25:37 145.822/145.860
UKube-1 26 Jan 21:21:00 21:25:19 78° 72° (ENE) 21:29:42 .
HO-68 26 Jan 21:23:24 21:30:01 38° 265° (W) 21:36:34 435.675
ZACube-1 26 Jan 21:29:51 21:34:28 76° 74° (ENE) 21:39:07 437.345
SEEDS 26 Jan 21:31:34 21:35:12 26° 268° (W) 21:38:47 437.485
DX 1 26 Jan 21:38:27 21:42:49 73° 256° (WSW) 21:47:13 434.975-435.025
FUNcube-1 26 Jan 21:42:48 21:47:25 86° 255° (WSW) 21:52:04 145.935
ESTCUBE 1 26 Jan 21:44:15 21:48:08 30° 63° (ENE) 21:52:05 437.505/2401.250
TISAT 1 26 Jan 21:47:33 21:48:23 11° 50° (NE) 21:49:23 437.305
AISAT 26 Jan 21:49:39 21:54:03 63° 71° (ENE) 21:58:31 437.250
AIST 1 26 Jan 21:50:59 21:54:25 23° 64° (ENE) 21:57:56
TIGRISAT 26 Jan 21:51:05 21:52:30 11° 82° (E) 21:54:08 435.000
HUMSAT D 26 Jan 21:54:45 21:59:07 78° 74° (ENE) 22:03:30 437.325/437.525
UWE-3 26 Jan 21:56:02 22:00:40 58° 260° (W) 22:05:22 435.000/436.395/437.385
50 SAT 26 Jan 21:56:38 22:00:44 64° 72° (ENE) 22:04:52 437.505
COMPASS 1 26 Jan 22:03:20 22:06:05 16° 273° (W) 22:08:43 437.405
CANX-2 26 Jan 22:11:37 22:12:30 10° 278° (W) 22:13:11 2200.000
BRITE-PL 26 Jan 22:15:11 22:17:21 12° 282° (WNW) 22:19:18 437.365/2234.400
VELOX 1 26 Jan 22:19:25 22:23:51 74° 256° (WSW) 22:28:21 145.980
GOMX 1 26 Jan 22:24:02 22:26:38 13° 281° (W) 22:29:04 467.674
Oscar 11 26 Jan 22:24:45 22:28:07 21° 270° (W) 22:31:25 145.826/435.025
NANOSAT C BR1 26 Jan 22:32:51 22:35:41 17° 88° (E) 22:38:38 145.865
SPROUT 26 Jan 22:33:36 22:37:02 24° 60° (ENE) 22:40:32 437.525
YUBILEINY 26 Jan 22:34:46 22:42:25 32° 304° (NW) 22:49:59 435.215
CUBEBUG 1 26 Jan 22:36:13 22:40:34 74° 72° (ENE) 22:44:58 437.445
UNISAT 6 26 Jan 22:40:43 22:44:46 31° 94° (E) 22:48:45 437.425
DELFI C3 26 Jan 22:42:36 22:45:14 16° 273° (W) 22:47:44 145.870
QB50P2 26 Jan 22:45:12 22:48:37 22° 91° (E) 22:52:03 145.880/145.840
CUBEBUG 2 26 Jan 22:48:12 22:51:48 21° 272° (W) 22:55:21 437.445
BEESAT 26 Jan 22:48:53 22:49:21 10° 46° (NE) 22:50:01 436.000
ITUPSAT 1 26 Jan 22:50:44 22:51:28 10° 46° (NE) 22:52:23 437.325
DOVE 4 26 Jan 22:50:58 22:52:00 10° 283° (WNW) 22:52:44 437.250
QB50P1 26 Jan 22:55:22 22:59:03 27° 93° (E) 23:02:45 145.935-145.965
CINEMA 3 26 Jan 22:56:13 22:58:43 13° 279° (W) 23:01:02 145.822/145.860
UKube-1 26 Jan 22:59:22 23:02:07 16° 273° (W) 23:04:42 .
POLYITAN 1 26 Jan 23:08:06 23:12:06 35° 96° (E) 23:16:05 437.675
ZACube-1 26 Jan 23:08:16 23:11:27 18° 273° (W) 23:14:31 437.345
ANTELSAT 26 Jan 23:16:15 23:20:48 64° 102° (ESE) 23:25:12 437.575/2403.000
DX 1 26 Jan 23:18:50 23:20:00 11° 277° (W) 23:20:56 434.975-435.025
TISAT 1 26 Jan 23:19:14 23:23:24 55° 69° (ENE) 23:27:37 437.305
ESTCUBE 1 26 Jan 23:20:37 23:24:56 43° 262° (W) 23:29:14 437.505/2401.250
BUGSAT 1 26 Jan 23:21:16 23:25:14 36° 97° (E) 23:29:14 437.445
FUNcube-1 26 Jan 23:22:03 23:24:34 14° 276° (W) 23:26:54 145.935
TIGRISAT 26 Jan 23:25:39 23:30:14 75° 104° (ESE) 23:34:40 435.000
AISAT 26 Jan 23:27:49 23:31:09 20° 271° (W) 23:34:25 437.250
AIST 1 26 Jan 23:28:12 23:32:25 51° 265° (W) 23:36:39
POPSAT HIP 1 26 Jan 23:29:30 23:33:46 54° 100° (E) 23:38:01 437.405
HUMSAT D 26 Jan 23:32:46 23:35:31 16° 274° (W) 23:38:09 437.325/437.525
50 SAT 26 Jan 23:33:26 23:36:19 18° 271° (W) 23:39:07 437.505
DUCHIFAT 1 26 Jan 23:33:46 23:38:03 58° 101° (E) 23:42:19 145.980
O/OREOS (USA 219) 26 Jan 23:56:44 23:58:46 13° 26° (NNE) 00:00:52 437.305
VELOX 1 26 Jan 23:59:53 00:01:22 11° 277° (W) 00:02:39 145.980
SWISSCUBE 27 Jan 00:05:34 00:09:53 36° 64° (ENE) 00:14:17 437.505
NANOSAT C BR1 27 Jan 00:07:47 00:12:06 70° 288° (WNW) 00:16:23 145.865
SPROUT 27 Jan 00:08:38 00:12:52 54° 260° (W) 00:17:10 437.525
CUBEBUG 1 27 Jan 00:14:41 00:17:33 16° 273° (W) 00:20:17 437.445
ISS 27 Jan 00:15:46 00:18:34 26° 153° (SSE) 00:21:25 145.825
UNISAT 6 27 Jan 00:17:25 00:21:42 40° 294° (WNW) 00:25:50 437.425
QB50P2 27 Jan 00:20:37 00:24:52 53° 290° (WNW) 00:29:03 145.880/145.840
BEESAT 27 Jan 00:21:40 00:26:11 45° 66° (ENE) 00:30:46 436.000
ITUPSAT 1 27 Jan 00:23:49 00:28:22 46° 66° (ENE) 00:32:58 437.325
QB50P1 27 Jan 00:31:00 00:35:08 43° 293° (WNW) 00:39:13 145.935-145.965
YUBILEINY 27 Jan 00:40:25 00:43:05 11° 335° (NNW) 00:45:28 435.215
GONETS M04 27 Jan 00:43:39 00:50:39 29° 79° (E) 00:57:50
POLYITAN 1 27 Jan 00:44:06 00:48:03 34° 296° (WNW) 00:51:57 437.675
ANTELSAT 27 Jan 00:53:42 00:57:15 22° 301° (WNW) 01:00:39 437.575/2403.000
TISAT 1 27 Jan 00:56:18 00:59:35 21° 270° (W) 01:02:49 437.305
BUGSAT 1 27 Jan 00:56:52 01:00:43 32° 296° (WNW) 01:04:31 437.445
M-CUBED/EXP-1 PRIME 27 Jan 00:59:06 01:01:36 17° 53° (NE) 01:04:03 437.505
TIGRISAT 27 Jan 01:03:14 01:06:31 19° 303° (WNW) 01:09:40 435.000
POPSAT HIP 1 27 Jan 01:05:54 01:09:25 24° 299° (WNW) 01:12:51 437.405
DUCHIFAT 1 27 Jan 01:10:14 01:13:37 22° 300° (WNW) 01:16:56 145.980
STARS 27 Jan 01:25:10 01:29:02 30° 62° (ENE) 01:32:59 437.465
KKS-1 27 Jan 01:25:15 01:29:27 41° 66° (ENE) 01:33:43 437.445
AUBIESAT-1 27 Jan 01:33:30 01:36:52 29° 59° (ENE) 01:40:04 437.475
O/OREOS (USA 219) 27 Jan 01:35:08 01:39:29 40° 50° (NE) 01:43:51 437.305
Oscar 19 27 Jan 01:41:17 01:46:08 39° 96° (E) 01:50:58 437.125/150
SWISSCUBE 27 Jan 01:43:20 01:47:47 38° 263° (W) 01:52:15 437.505
NANOSAT C BR1 27 Jan 01:45:17 01:47:17 13° 307° (NW) 01:49:09 145.865
ISS 27 Jan 01:51:30 01:54:45 58° 172° (S) 01:58:01 145.825
ITAMSAT 1 27 Jan 01:52:02 01:55:53 21° 88° (E) 01:59:51 435.822/435.867
QB50P2 27 Jan 01:59:13 01:59:55 10° 310° (NW) 02:00:28 145.880/145.840
BEESAT 27 Jan 02:00:01 02:04:15 30° 266° (W) 02:08:27 436.000
ITUPSAT 1 27 Jan 02:02:17 02:06:29 30° 266° (W) 02:10:40 437.325
M-CUBED/EXP-1 PRIME 27 Jan 02:32:18 02:36:18 72° 250° (WSW) 02:40:00 437.505
CUSAT 1 27 Jan 02:33:04 02:34:28 11° 69° (ENE) 02:36:26 437.405
Gurwin Techsat 1B 27 Jan 02:33:30 02:38:13 32° 93° (E) 02:42:59 435.225
AO-7 27 Jan 02:35:01 02:35:29 10° 73° (ENE) 02:36:38 29.400- 29.500
GONETS M04 27 Jan 02:37:52 02:46:41 83° 282° (WNW) 02:55:28
MOZHAYETS 4 27 Jan 02:47:24 02:50:19 17° 56° (NE) 02:53:22
HORYU 2 27 Jan 02:59:35 03:02:35 18° 88° (E) 03:05:42 437.375
STARS 27 Jan 03:01:09 03:05:25 43° 262° (W) 03:09:43 437.465
KKS-1 27 Jan 03:02:13 03:06:14 31° 265° (W) 03:10:15 437.445
AUBIESAT-1 27 Jan 03:08:07 03:11:47 35° 255° (WSW) 03:15:12 437.475
O/OREOS (USA 219) 27 Jan 03:14:41 03:18:54 36° 251° (WSW) 03:23:05 437.305
BEESAT 2 27 Jan 03:18:00 03:21:23 25° 119° (ESE) 03:24:52 435.950
Oscar 19 27 Jan 03:20:44 03:25:33 40° 297° (WNW) 03:30:18 437.125/150
ISS 27 Jan 03:27:51 03:31:06 53° 192° (SSW) 03:34:21 145.825
DANDE 27 Jan 03:27:54 03:33:51 23° 78° (ENE) 03:40:10 436.750
ITAMSAT 1 27 Jan 03:30:47 03:36:02 75° 289° (WNW) 03:41:15 435.822/435.867
BEESAT 3 27 Jan 03:34:13 03:38:00 37° 124° (ESE) 03:41:53 437.485
RS-15 27 Jan 03:37:35 03:40:58 12° 93° (E) 03:45:13 29.354- 29.394
JAS-2 27 Jan 03:38:19 03:39:31 11° 81° (E) 03:41:06 435.910
PRISM 27 Jan 04:03:04 04:04:34 12° 52° (NE) 04:06:12 437.425
CUSAT 1 27 Jan 04:08:08 04:15:39 41° 89° (E) 04:23:18 437.405
PCSat 27 Jan 04:12:21 04:14:42 13° 105° (ESE) 04:17:17 145.827
Gurwin Techsat 1B 27 Jan 04:13:18 04:18:28 51° 294° (WNW) 04:23:35 435.225
MOZHAYETS 4 27 Jan 04:22:25 04:27:01 88° 256° (WSW) 04:31:38
AO-7 27 Jan 04:23:04 04:31:01 46° 98° (E) 04:38:57 29.400- 29.500
CUBESAT XI-V 27 Jan 04:32:49 04:35:43 17° 55° (NE) 04:38:43 437.345
HORYU 2 27 Jan 04:35:20 04:39:49 70° 288° (WNW) 04:44:14 437.375
GONETS M04 27 Jan 04:37:53 04:45:06 27° 309° (NW) 04:52:07
AIST 2 27 Jan 04:38:01 04:42:12 56° 128° (SE) 04:46:28 435.215
YUBILEINY 27 Jan 04:41:29 04:47:19 19° 43° (NE) 04:53:25 435.215
BEESAT 2 27 Jan 04:55:12 04:59:20 62° 319° (NW) 05:03:32 435.950
ISS 27 Jan 05:04:36 05:07:12 21° 211° (SSW) 05:09:46 145.825
DANDE 27 Jan 05:07:51 05:16:10 73° 99° (E) 05:24:47 436.750
ITAMSAT 1 27 Jan 05:11:24 05:14:49 17° 309° (NW) 05:18:05 435.822/435.867
BEESAT 3 27 Jan 05:12:07 05:16:08 45° 324° (NW) 05:20:11 437.485
STRAND 1 27 Jan 05:16:40 05:21:07 32° 61° (ENE) 05:25:40 437.568
Cubesat XI-IV 27 Jan 05:17:06 05:18:38 11° 80° (E) 05:20:27 437.490
JAS-2 27 Jan 05:20:31 05:25:54 60° 101° (ESE) 05:31:50 435.910
PRISM 27 Jan 05:35:19 05:39:24 68° 72° (ENE) 05:43:32 437.425
CUTE-I 27 Jan 05:36:32 05:39:47 16° 85° (E) 05:43:13 437.470
RS-15 27 Jan 05:40:24 05:50:35 50° 117° (ESE) 06:01:03 29.354- 29.394
CUSAT 1 27 Jan 05:50:08 05:58:28 67° 289° (WNW) 06:06:45 437.405
PCSat 27 Jan 05:51:52 05:57:12 64° 124° (SE) 06:02:37 145.827
Gurwin Techsat 1B 27 Jan 05:55:06 05:57:24 13° 314° (NW) 05:59:32 435.225
MOZHAYETS 4 27 Jan 06:02:30 06:05:02 14° 276° (W) 06:07:24
CUBESAT XI-V 27 Jan 06:07:59 06:12:35 89° 75° (ENE) 06:17:15 437.345
HORYU 2 27 Jan 06:13:31 06:15:47 14° 308° (NW) 06:17:54 437.375
AO-7 27 Jan 06:15:59 06:24:09 59° 301° (WNW) 06:32:13 29.400- 29.500
AIST 2 27 Jan 06:17:03 06:21:03 36° 329° (NNW) 06:25:04 435.215
BEESAT 2 27 Jan 06:34:57 06:38:19 22° 342° (NNW) 06:41:40 435.950
YUBILEINY 27 Jan 06:37:52 06:46:32 59° 70° (ENE) 06:55:14 435.215
BEESAT 3 27 Jan 06:52:05 06:55:13 20° 347° (NNW) 06:58:19 437.485
DANDE 27 Jan 06:52:28 07:00:23 40° 301° (WNW) 07:08:16 436.750
Cubesat XI-IV 27 Jan 06:54:39 07:00:00 61° 102° (ESE) 07:05:20 437.490
STRAND 1 27 Jan 06:55:14 07:00:11 50° 260° (W) 07:05:11 437.568
JAS-2 27 Jan 07:06:13 07:10:51 30° 300° (WNW) 07:15:47 435.910
PRISM 27 Jan 07:12:45 07:15:27 16° 272° (W) 07:18:02 437.425
CUTE-I 27 Jan 07:15:22 07:20:47 85° 105° (ESE) 07:26:11 437.470
PCSat 27 Jan 07:35:55 07:41:00 38° 326° (NW) 07:46:04 145.827
CUSAT 1 27 Jan 07:36:34 07:43:11 24° 312° (NW) 07:49:24 437.405
CUBESAT XI-V 27 Jan 07:48:09 07:50:49 15° 276° (W) 07:53:19 437.345
RS-15 27 Jan 07:51:43 08:02:39 72° 324° (NW) 08:13:53 29.354- 29.394
AIST 2 27 Jan 07:57:38 08:00:46 19° 352° (N) 08:03:54 435.215
AO-7 27 Jan 08:09:23 08:15:28 23° 325° (NW) 08:21:23 29.400- 29.500
CANX-2 27 Jan 08:11:57 08:14:03 14° 85° (E) 08:16:18 2200.000
UNISAT 6 27 Jan 08:12:13 08:14:12 13° 51° (NE) 08:16:20 437.425
BEESAT 2 27 Jan 08:14:55 08:17:51 18° 5° (N) 08:20:47 435.950
BRITE-PL 27 Jan 08:30:52 08:35:59 33° 91° (E) 08:41:03 437.365/2234.400
BEESAT 3 27 Jan 08:31:40 08:34:41 19° 10° (N) 08:37:43 437.485
AAUSAT CUBESAT 2 27 Jan 08:32:50 08:34:40 13° 85° (E) 08:36:39 437.432
POLYITAN 1 27 Jan 08:35:01 08:36:25 12° 51° (NE) 08:37:59 437.675
YUBILEINY 27 Jan 08:35:06 08:43:12 43° 274° (W) 08:51:13 435.215
Cubesat XI-IV 27 Jan 08:35:14 08:39:50 29° 302° (WNW) 08:44:21 437.490
CUTE 1.7 + AOD 2 27 Jan 08:35:42 08:38:53 20° 90° (E) 08:42:07 437.475
GOMX 1 27 Jan 08:38:10 08:42:48 28° 89° (E) 08:47:24 467.674
DANDE 27 Jan 08:41:40 08:46:34 15° 326° (NW) 08:51:04 436.750
HO-68 27 Jan 08:43:08 08:49:30 34° 93° (E) 08:55:55 435.675
BUGSAT 1 27 Jan 08:46:00 08:46:55 11° 51° (NE) 08:48:00 437.445
ANTELSAT 27 Jan 08:46:05 08:49:38 22° 58° (ENE) 08:53:15 437.575/2403.000
POPSAT HIP 1 27 Jan 08:54:54 08:57:28 16° 56° (NE) 09:00:11 437.405
TIGRISAT 27 Jan 08:54:55 08:58:41 25° 60° (ENE) 09:02:31 435.000
CUTE-I 27 Jan 08:56:14 09:00:20 22° 306° (NW) 09:04:19 437.470
CUBEBUG 2 27 Jan 08:58:20 08:58:31 10° 79° (E) 08:58:58 437.445
DUCHIFAT 1 27 Jan 08:58:45 09:01:27 17° 56° (ENE) 09:04:16 145.980
DOVE 4 27 Jan 09:01:03 09:05:43 31° 91° (E) 09:10:17 437.250
CINEMA 3 27 Jan 09:05:15 09:08:51 20° 87° (E) 09:12:28 145.822/145.860
SEEDS 27 Jan 09:09:07 09:13:00 35° 95° (E) 09:16:53 437.485
ZACube-1 27 Jan 09:15:37 09:15:59 10° 80° (E) 09:16:37 437.345
PCSat 27 Jan 09:21:50 09:25:53 21° 351° (N) 09:29:56 145.827
DX 1 27 Jan 09:22:04 09:24:06 13° 85° (E) 09:26:18 434.975-435.025
FUNcube-1 27 Jan 09:26:55 09:28:58 13° 83° (E) 09:31:10 145.935
NANOSAT C BR1 27 Jan 09:31:33 09:35:16 30° 63° (ENE) 09:39:03 145.865
AIST 2 27 Jan 09:37:20 09:40:44 22° 16° (NNE) 09:44:09 435.215
COMPASS 1 27 Jan 09:38:48 09:42:57 56° 100° (E) 09:47:04 437.405
UWE-3 27 Jan 09:40:35 09:44:00 21° 88° (E) 09:47:27 435.000/436.395/437.385
QB50P2 27 Jan 09:44:15 09:48:13 38° 66° (ENE) 09:52:16 145.880/145.840
UNISAT 6 27 Jan 09:45:32 09:50:12 61° 70° (ENE) 09:54:51 437.425
CANX-2 27 Jan 09:46:25 09:50:42 86° 286° (WNW) 09:54:56 2200.000
BEESAT 2 27 Jan 09:53:25 09:57:13 31° 28° (NNE) 10:01:00 435.950
QB50P1 27 Jan 09:54:15 09:58:20 46° 68° (ENE) 10:02:30 145.935-145.965
AO-7 27 Jan 10:02:00 10:05:16 13° 352° (N) 10:08:28 29.400- 29.500
Oscar 11 27 Jan 10:04:24 10:08:37 47° 99° (E) 10:12:48 145.826/435.025
VELOX 1 27 Jan 10:05:05 10:07:30 15° 86° (E) 10:10:05 145.980
RS-15 27 Jan 10:06:25 10:16:58 48° 355° (N) 10:27:53 29.354- 29.394
AAUSAT CUBESAT 2 27 Jan 10:06:51 10:11:03 88° 287° (WNW) 10:15:13 437.432
POLYITAN 1 27 Jan 10:07:20 10:11:35 61° 71° (ENE) 10:15:53 437.675
BRITE-PL 27 Jan 10:09:10 10:14:46 55° 292° (WNW) 10:20:14 437.365/2234.400
BEESAT 3 27 Jan 10:09:52 10:13:50 39° 33° (NNE) 10:17:47 437.485
CUTE 1.7 + AOD 2 27 Jan 10:11:01 10:15:12 55° 290° (WNW) 10:19:19 437.475
DELFI C3 27 Jan 10:14:37 10:18:35 49° 99° (E) 10:22:32 145.870
GOMX 1 27 Jan 10:15:52 10:21:21 61° 290° (WNW) 10:26:38 467.674
BUGSAT 1 27 Jan 10:17:35 10:21:37 59° 70° (ENE) 10:25:46 437.445
ANTELSAT 27 Jan 10:21:19 10:26:02 70° 257° (WSW) 10:30:46 437.575/2403.000
SO-50 27 Jan 10:28:30 10:30:27 13° 110° (ESE) 10:32:36 436.795
POPSAT HIP 1 27 Jan 10:28:31 10:32:50 89° 254° (WSW) 10:37:11 437.405
TIGRISAT 27 Jan 10:30:28 10:35:09 60° 259° (W) 10:39:49 435.000
HO-68 27 Jan 10:30:40 10:37:47 67° 295° (WNW) 10:44:51 435.675
CUBEBUG 2 27 Jan 10:31:40 10:36:21 64° 102° (ESE) 10:40:52 437.445
DUCHIFAT 1 27 Jan 10:32:31 10:36:48 83° 255° (WSW) 10:41:09 145.980
UKube-1 27 Jan 10:38:30 10:42:50 58° 102° (ESE) 10:47:09 .
DOVE 4 27 Jan 10:38:34 10:43:45 52° 292° (WNW) 10:48:44 437.250
CINEMA 3 27 Jan 10:41:40 10:46:40 72° 288° (WNW) 10:51:27 145.822/145.860
SEEDS 27 Jan 10:45:03 10:48:50 32° 295° (WNW) 10:52:34 437.485
